Regional Weather Roundup
Issued by NWS

Home | Current Version | Previous Version | Graphics & Text | Print | Product List | Glossary On
Versions: 1 2 3 4 5 6 7 8 9 10 11 12 13 14 15 16 17 18 19 20 21 22 23 24 25 26 27 28 29 30 31 32 33 34 35 36 37 38 39 40 41 42 43 44 45 46 47 48 49 50
000
ASUS43 KLOT 030212
RWRIL

ILLINOIS REGIONAL WEATHER ROUNDUP
NATIONAL WEATHER SERVICE CHICAGO/ROMEOVILLE IL
900 PM CDT SUN AUG 02 2015

NOTE: "FAIR" INDICATES FEW OR NO CLOUDS BELOW 12,000 FEET WITH NO
SIGNIFICANT WEATHER AND/OR OBSTRUCTIONS TO VISIBILITY.

* THESE STATIONS ARE NOT UNDER NWS QUALITY CONTROL. THEY ALSO MAY NOT
  REPORT WEATHER SUCH AS PRECIPITATION OR FOG.

ILZ001-002-007-009-015-016-024-030300-
NORTHWEST ILLINOIS

CITY           SKY/WX    TMP DP  RH WIND       PRES   REMARKS
MOLINE         PTCLDY    84  74  71 SW13      29.71F HX  91
STERLING*      MOCLDY    82  73  74 W12       29.67F HX  88
SAVANNA*       CLEAR     83  73  72 W9        29.68F HX  89
$$

ILZ003-004-008-010-011-017-018-030300-
NORTH CENTRAL ILLINOIS

CITY           SKY/WX    TMP DP  RH WIND       PRES   REMARKS
ROCKFORD       PTCLDY    83  73  72 SW12G22   29.67S HX  89
FREEPORT*      CLEAR     79  74  85 W9        29.70R HX  83
ROCHELLE*      MOCLDY    82  73  76 SW13G21   29.69S HX  87
DE KALB*       PTCLDY    82  74  77 SW17G23   29.68F HX  87
PERU*          MOCLDY    83  71  68 SW12G18   29.73S HX  87
$$

ILZ005-006-012>014-019>023-030300-
NORTHEAST ILLINOIS

CITY           SKY/WX    TMP DP  RH WIND       PRES   REMARKS
CHICAGO-OHARE  MOCLDY    85  70  60 SW14G26   29.65F HX  89
CHICAGO-MIDWAY MOCLDY    87  68  52 SW20G26   29.65F HX  90
AURORA         PTCLDY    83  70  64 SW17      29.68F HX  87
LANSING*       PTCLDY    83  70  64 SW20G26   29.69F HX  87
JOLIET*        PTCLDY    85  71  62 SW10G16   29.70F HX  90
WAUKEGAN       TSTM      75  66  73 S26G33    29.63R
DUPAGE AIRPORT CLEAR     82  70  66 SW21G30   29.65F HX  86
KANKAKEE*      PTCLDY    79  73  79 SW10      29.76R HX  83
WHEELING       PTCLDY    85  70  60 SW17G31   29.63F THUNDER HX  89
MORRIS*        CLEAR     82  69  64 SW15      29.70S HX  86
ROMEOVILLE*    CLEAR     83  67  57 SW18G26   29.68F HX  86
NORTHERLY ISL    N/A     86  66  51 SW12        N/A  HX  88
$$

LMZ740>746-030300-
SOUTHERN LAKE MICHIGAN

STATION/POSITION SKY/WX   TEMP    WIND        PRES    VSBY  WAVE
                          AIR SEA DIR/SP/G                  HT/PER
                          (F)     (DEG/KT/KT) (MB)    (MI)  (FT/S)
HARRISON CRIB              86     220/ 28/ 40   N/A
BURNHAM HARBOR             86     220/ 11/ 23   N/A
CALUMET HARBOR             86     220/ 10/ 19   N/A
BURNS HARBOR               84     220/ 19     1005.4S
MICHIGAN CITY              84     190/ 23/ 26   N/A
MICHIGAN CITY 6N           81 74  230/ 17/ 25   N/A           4/ 4
ST. JOSEPH                 78 73  240/ 17/ 19   N/A           5/ 5
$$

ILZ025>027-034>036-040-047-049-050-058-095>099-030300-
WEST-CENTRAL ILLINOIS

CITY           SKY/WX    TMP DP  RH WIND       PRES   REMARKS
QUINCY         CLOUDY    79  72  79 SW8       29.81S HX  82
GALESBURG*     MOCLDY    80  72  77 SW9       29.76F HX  83
MACOMB*        CLOUDY    81  73  76 SW7       29.80F HX  85
JACKSONVILLE*  MOCLDY    82  73  75 SW6       29.81S HX  87
PITTSFIELD*    MOCLDY    82  72  71 SW5       29.83S HX  86
$$

ILZ028>032-037-038-041>044-048-051>054-059>061-030300-
CENTRAL ILLINOIS

CITY           SKY/WX    TMP DP  RH WIND       PRES   REMARKS
PONTIAC        CLEAR     82  72  71 SW12      29.76S HX  86
BLOOMINGTON    CLEAR     81  71  71 SW13      29.80R HX  85
DECATUR        CLEAR     82  70  66 SW10      29.81R HX  86
PEORIA         PTCLDY    84  72  67 SW12      29.77S HX  89
LACON*         PTCLDY    82  72  73 SW8       29.74S HX  86
LINCOLN*       CLEAR     82  68  62 SW3       29.78S HX  85
SPRINGFIELD    PTCLDY    83  69  62 SW8       29.80R HX  86
TAYLORVILLE    CLEAR     77  70  78 SW6       29.82R
$$

ILZ033-039-045-046-055>057-062-063-030300-
EAST-CENTRAL ILLINOIS

CITY           SKY/WX    TMP DP  RH WIND       PRES   REMARKS
CHAMPAIGN      CLEAR     77  71  82 S7        29.81R
DANVILLE*      CLEAR     79  69  72 SW10      29.77S HX  81
RANTOUL*       CLEAR     79  72  78 SW8       29.79R HX  83
MATTOON        CLEAR     81  70  69 S7        29.82R HX  84
PARIS*         CLEAR     78  72  81 S7        29.82S HX  80
$$

ILZ079-100>102-030300-
SOUTHWEST ILLINOIS

CITY           SKY/WX    TMP DP  RH WIND       PRES   REMARKS
ALTON          CLEAR     79  68  69 SW7       29.84R HX  81
BELLEVILLE     CLEAR     82  72  72 SW5       29.83R HX  87
CAHOKIA*       CLEAR     84  69  60 SW3       29.83S HX  88
SPARTA*        CLEAR     83  71  68 S6        29.86S HX  87
$$

ILZ064>066-069>071-074>076-080>082-084>086-088>090-092>094-030300-
SOUTH-CENTRAL ILLINOIS

CITY           SKY/WX    TMP DP  RH WIND       PRES   REMARKS
CARBONDALE     CLEAR     80  72  76 S6        29.86R HX  84
CAIRO*         CLEAR     81  73  78 S3        29.87S HX  85
EFFINGHAM*     CLEAR     81  68  64 SE5       29.85R HX  84
MARION         CLEAR     81  73  78 S3        29.87S HX  85
MT. VERNON     CLEAR     81  70  69 S5        29.86R HX  84
CENTRALIA*     CLEAR     79  71  75 S7        29.85R HX  82
SALEM*         CLEAR     83  73  71 S7        29.85R HX  88
METROPOLIS*    CLEAR     81  74  78 CALM      29.88S HX  86
$$

ILZ067-068-072-073-078-083-087-091-030300-
SOUTHEAST ILLINOIS

CITY           SKY/WX    TMP DP  RH WIND       PRES   REMARKS
FLORA*         CLEAR     79  72  78 S6        29.85R HX  82
FAIRFIELD*     CLEAR     79  73  81 S5        29.84S HX  82
HARRISBURG*    CLEAR     80  73  80 S3        29.88S HX  84
ROBINSON*      CLEAR     78  71  78 S7        29.85R HX  80
CARMI*         CLEAR     76  69  79 S6        29.86R
$$

ABBREVIATIONS USED IN REMARKS
   TC - TEMPERATURE IN CELSIUS
  WCI - WIND CHILL INDEX
   HX - HEAT INDEX
  VSB - VISIBILITY
$$



USA.gov is the U.S. government's official web portal to all federal, state and local government web resources and services.